Tracking 20942 objects as of 12-Jul-2020
HD Live streaming from Space Station
objects crossing your sky now

COSMOS 87

Track COSMOS 87 now!
10-day predictions
COSMOS 87 is classified as:


NORAD ID: 1585
Int'l Code: 1965-073B
Perigee: 1,323.6 km
Apogee: 1,641.2 km
Inclination: 56.1 °
Period: 115.4 minutes
Semi major axis: 7853 km
RCS: 0.3642 m2 (medium)
Launch date: September 18, 1965
Source: Commonwealth of Independent States (former USSR) (CIS)
Launch site: TYURATAM MISSILE AND SPACE COMPLEX (TTMTR)
aabbcc
Your satellite tracking list
Your tracking list is empty




NASA's NSSDC Master Catalog

Two Line Element Set (TLE):
1  1585U 65073B   20193.74715694 -.00000095 +00000-0 +21277-5 0  9997
2  1585 056.0630 346.1897 0202244 000.3491 013.1962 12.47427153495602
Source of the keplerian elements: AFSPC